Time,TemperatureF,DewpointF,PressureIn,WindDirection,WindDirectionDegrees,WindSpeedMPH,WindSpeedGustMPH,Humidity,HourlyPrecipIn,Conditions,Clouds,dailyrainin,SoftwareType,DateUTC
2013-06-20 00:01:00,59.0,50.0,30.33,SSW,203,0.9,1.1,72,0.00,,,0.00,WUHU216HW,2013-06-20 07:01:00,
2013-06-20 00:06:00,59.0,49.7,30.33,SW,225,1.6,1.8,71,0.00,,,0.00,WUHU216HW,2013-06-20 07:06:00,
2013-06-20 00:11:00,58.9,49.5,30.33,SSW,203,0.0,1.8,71,0.00,,,0.00,WUHU216HW,2013-06-20 07:11:00,
2013-06-20 00:16:00,58.9,49.5,30.33,SSW,203,0.9,0.9,71,0.00,,,0.00,WUHU216HW,2013-06-20 07:16:00,
2013-06-20 00:21:00,59.0,49.7,30.33,South,180,0.0,0.9,71,0.00,,,0.00,WUHU216HW,2013-06-20 07:21:00,
2013-06-20 00:26:00,58.9,49.1,30.33,East,90,0.9,2.7,70,0.00,,,0.00,WUHU216HW,2013-06-20 07:26:00,
2013-06-20 00:31:00,58.9,49.1,30.33,West,270,0.4,2.7,70,0.00,,,0.00,WUHU216HW,2013-06-20 07:31:00,
2013-06-20 00:36:00,58.9,49.1,30.33,WSW,248,0.0,1.3,70,0.00,,,0.00,WUHU216HW,2013-06-20 07:36:00,
2013-06-20 00:41:00,58.9,49.1,30.33,SW,225,0.0,1.1,70,0.00,,,0.00,WUHU216HW,2013-06-20 07:41:00,
2013-06-20 00:45:00,58.9,49.1,30.33,WSW,248,1.8,1.8,70,0.00,,,0.00,WUHU216HW,2013-06-20 07:45:00,
2013-06-20 00:50:00,58.7,49.0,30.33,WSW,248,1.1,3.4,70,0.00,,,0.00,WUHU216HW,2013-06-20 07:50:00,
2013-06-20 00:55:00,58.7,49.0,30.33,SW,225,1.8,3.4,70,0.00,,,0.00,WUHU216HW,2013-06-20 07:55:00,
2013-06-20 01:00:00,58.7,49.0,30.33,SSW,203,1.6,3.1,70,0.00,,,0.00,WUHU216HW,2013-06-20 08:00:00,
2013-06-20 01:05:00,58.5,48.8,30.33,SSE,158,0.0,3.1,70,0.00,,,0.00,WUHU216HW,2013-06-20 08:05:00,
2013-06-20 01:10:00,58.5,48.8,30.33,SSW,203,0.7,2.5,70,0.00,,,0.00,WUHU216HW,2013-06-20 08:10:00,
2013-06-20 01:15:00,58.5,49.1,30.33,South,180,1.6,1.8,71,0.00,,,0.00,WUHU216HW,2013-06-20 08:15:00,
2013-06-20 01:20:00,58.5,49.1,30.33,SW,225,0.4,1.8,71,0.00,,,0.00,WUHU216HW,2013-06-20 08:20:00,
2013-06-20 01:25:00,58.3,49.0,30.33,SW,225,0.4,2.5,71,0.00,,,0.00,WUHU216HW,2013-06-20 08:25:00,
2013-06-20 01:30:00,58.3,49.3,30.33,SW,225,1.1,3.6,72,0.00,,,0.00,WUHU216HW,2013-06-20 08:30:00,
2013-06-20 01:35:00,58.1,49.1,30.33,SSW,203,2.0,3.6,72,0.00,,,0.00,WUHU216HW,2013-06-20 08:35:00,
2013-06-20 01:40:00,58.1,49.1,30.33,SW,225,2.5,4.5,72,0.00,,,0.00,WUHU216HW,2013-06-20 08:40:00,
2013-06-20 01:45:00,58.1,49.5,30.33,WSW,248,4.5,4.5,73,0.00,,,0.00,WUHU216HW,2013-06-20 08:45:00,
2013-06-20 01:50:00,58.0,49.0,30.32,SW,225,0.7,4.5,72,0.00,,,0.00,WUHU216HW,2013-06-20 08:50:00,
2013-06-20 01:55:00,58.0,49.3,30.32,SSW,203,2.0,2.2,73,0.00,,,0.00,WUHU216HW,2013-06-20 08:55:00,
2013-06-20 02:00:00,58.0,49.3,30.32,SSE,158,1.1,2.2,73,0.00,,,0.00,WUHU216HW,2013-06-20 09:00:00,
2013-06-20 02:05:00,58.0,49.3,30.32,SSE,158,2.0,2.9,73,0.00,,,0.00,WUHU216HW,2013-06-20 09:05:00,
2013-06-20 02:10:00,58.0,49.3,30.32,WSW,248,5.6,5.6,73,0.00,,,0.00,WUHU216HW,2013-06-20 09:10:00,
2013-06-20 02:15:00,58.0,49.0,30.31,SSW,203,0.2,5.6,72,0.00,,,0.00,WUHU216HW,2013-06-20 09:15:00,
2013-06-20 02:20:00,58.0,49.3,30.31,SW,225,3.4,3.8,73,0.00,,,0.00,WUHU216HW,2013-06-20 09:20:00,
2013-06-20 02:25:00,57.8,49.1,30.31,SW,225,2.2,3.4,73,0.00,,,0.00,WUHU216HW,2013-06-20 09:25:00,
2013-06-20 02:30:00,57.8,49.1,30.31,West,270,2.9,4.9,73,0.00,,,0.00,WUHU216HW,2013-06-20 09:30:00,
2013-06-20 02:35:00,57.8,49.1,30.31,SW,225,3.4,4.9,73,0.00,,,0.00,WUHU216HW,2013-06-20 09:35:00,
2013-06-20 02:40:00,57.8,49.1,30.31,SW,225,1.6,3.4,73,0.00,,,0.00,WUHU216HW,2013-06-20 09:40:00,
2013-06-20 02:45:00,57.8,49.1,30.31,South,180,2.2,2.9,73,0.00,,,0.00,WUHU216HW,2013-06-20 09:45:00,
2013-06-20 02:50:00,57.6,49.0,30.31,ESE,113,0.2,2.9,73,0.00,,,0.00,WUHU216HW,2013-06-20 09:50:00,
2013-06-20 02:55:00,57.6,49.0,30.31,WSW,248,1.1,3.4,73,0.00,,,0.00,WUHU216HW,2013-06-20 09:55:00,
2013-06-20 03:00:00,57.6,49.0,30.31,SW,225,0.0,3.4,73,0.00,,,0.00,WUHU216HW,2013-06-20 10:00:00,
2013-06-20 03:05:00,57.6,49.0,30.30,SSE,158,0.7,2.7,73,0.00,,,0.00,WUHU216HW,2013-06-20 10:05:00,
2013-06-20 03:10:00,57.4,48.8,30.30,SW,225,2.5,2.7,73,0.00,,,0.00,WUHU216HW,2013-06-20 10:10:00,
2013-06-20 03:15:00,57.4,49.1,30.30,South,180,2.7,4.0,74,0.00,,,0.00,WUHU216HW,2013-06-20 10:15:00,
2013-06-20 03:20:00,57.4,49.5,30.30,SSW,203,2.5,4.0,75,0.00,,,0.00,WUHU216HW,2013-06-20 10:20:00,
2013-06-20 03:25:00,57.2,49.3,30.30,SW,225,1.1,4.7,75,0.00,,,0.00,WUHU216HW,2013-06-20 10:25:00,
2013-06-20 03:30:00,57.2,49.3,30.30,NNW,338,0.4,4.7,75,0.00,,,0.00,WUHU216HW,2013-06-20 10:30:00,
2013-06-20 03:35:00,57.2,49.3,30.31,SW,225,2.2,2.9,75,0.00,,,0.00,WUHU216HW,2013-06-20 10:35:00,
2013-06-20 03:40:00,57.2,49.3,30.30,SW,225,0.4,2.2,75,0.00,,,0.00,WUHU216HW,2013-06-20 10:40:00,
2013-06-20 03:45:00,57.1,49.5,30.30,SSW,203,1.3,5.1,76,0.00,,,0.00,WUHU216HW,2013-06-20 10:45:00,
2013-06-20 03:50:00,57.1,49.5,30.30,South,180,0.9,5.1,76,0.00,,,0.00,WUHU216HW,2013-06-20 10:50:00,
2013-06-20 03:55:00,57.1,49.5,30.30,South,180,0.0,1.3,76,0.00,,,0.00,WUHU216HW,2013-06-20 10:55:00,
2013-06-20 04:00:00,57.1,49.9,30.30,SSW,203,0.9,3.6,77,0.00,,,0.00,WUHU216HW,2013-06-20 11:00:00,
2013-06-20 04:05:00,56.7,49.9,30.30,SW,225,5.4,6.7,78,0.00,,,0.00,WUHU216HW,2013-06-20 11:05:00,
2013-06-20 04:10:00,56.3,49.5,30.30,SSE,158,0.7,6.7,78,0.00,,,0.00,WUHU216HW,2013-06-20 11:10:00,
2013-06-20 04:15:00,56.2,49.7,30.30,South,180,2.9,4.0,79,0.00,,,0.00,WUHU216HW,2013-06-20 11:15:00,
2013-06-20 04:20:00,56.0,49.9,30.30,SE,135,1.8,4.0,80,0.00,,,0.00,WUHU216HW,2013-06-20 11:20:00,
2013-06-20 04:25:00,56.0,49.9,30.30,SW,225,1.6,3.8,80,0.00,,,0.00,WUHU216HW,2013-06-20 11:25:00,
2013-06-20 04:30:00,55.8,49.3,30.30,WSW,248,1.8,4.0,79,0.00,,,0.00,WUHU216HW,2013-06-20 11:30:00,
2013-06-20 04:35:00,55.8,49.3,30.30,SW,225,1.6,4.0,79,0.00,,,0.00,WUHU216HW,2013-06-20 11:35:00,
2013-06-20 04:40:00,55.8,50.1,30.30,SW,225,1.1,4.0,81,0.00,,,0.00,WUHU216HW,2013-06-20 11:40:00,
2013-06-20 04:45:00,55.8,49.7,30.30,SSW,203,0.0,4.0,80,0.00,,,0.00,WUHU216HW,2013-06-20 11:45:00,
2013-06-20 04:50:00,55.6,49.9,30.30,South,180,0.0,2.2,81,0.00,,,0.00,WUHU216HW,2013-06-20 11:50:00,
2013-06-20 04:55:00,55.6,49.9,30.30,SSW,203,1.1,2.5,81,0.00,,,0.00,WUHU216HW,2013-06-20 11:55:00,
2013-06-20 05:00:00,55.4,49.7,30.30,SSW,203,0.9,3.4,81,0.00,,,0.00,WUHU216HW,2013-06-20 12:00:00,
2013-06-20 05:05:00,55.4,50.0,30.30,South,180,1.8,3.6,82,0.00,,,0.00,WUHU216HW,2013-06-20 12:05:00,
2013-06-20 05:10:00,55.3,49.8,30.30,South,180,0.4,3.6,82,0.00,,,0.00,WUHU216HW,2013-06-20 12:10:00,
2013-06-20 05:15:00,55.3,49.8,30.30,SSW,203,0.9,3.4,82,0.00,,,0.00,WUHU216HW,2013-06-20 12:15:00,
2013-06-20 05:20:00,55.1,50.0,30.30,SW,225,2.9,2.9,83,0.00,,,0.00,WUHU216HW,2013-06-20 12:20:00,
2013-06-20 05:25:00,55.1,50.3,30.30,SW,225,5.4,6.3,84,0.00,,,0.00,WUHU216HW,2013-06-20 12:25:00,
2013-06-20 05:30:00,54.9,49.8,30.30,SW,225,1.8,6.3,83,0.00,,,0.00,WUHU216HW,2013-06-20 12:30:00,
2013-06-20 05:35:00,54.9,50.1,30.30,SW,225,2.5,3.6,84,0.00,,,0.00,WUHU216HW,2013-06-20 12:35:00,
2013-06-20 05:40:00,54.9,49.8,30.30,SSW,203,1.1,2.5,83,0.00,,,0.00,WUHU216HW,2013-06-20 12:40:00,
2013-06-20 05:45:00,54.9,49.8,30.30,SSW,203,1.6,2.5,83,0.00,,,0.00,WUHU216HW,2013-06-20 12:45:00,
2013-06-20 05:50:00,54.9,50.1,30.30,SW,225,3.4,3.4,84,0.00,,,0.00,WUHU216HW,2013-06-20 12:50:00,
2013-06-20 05:55:00,54.7,49.6,30.30,SW,225,1.8,3.4,83,0.00,,,0.00,WUHU216HW,2013-06-20 12:55:00,
2013-06-20 06:00:00,54.7,49.6,30.30,South,180,0.0,2.7,83,0.00,,,0.00,WUHU216HW,2013-06-20 13:00:00,
2013-06-20 06:05:00,54.7,49.6,30.30,West,270,0.0,1.1,83,0.00,,,0.00,WUHU216HW,2013-06-20 13:05:00,
2013-06-20 06:10:00,54.7,49.6,30.29,SSW,203,0.0,0.9,83,0.00,,,0.00,WUHU216HW,2013-06-20 13:10:00,
2013-06-20 06:15:00,54.9,49.8,30.29,SSW,203,1.1,1.1,83,0.00,,,0.00,WUHU216HW,2013-06-20 13:15:00,
2013-06-20 06:20:00,54.9,49.8,30.29,SSW,203,0.0,1.1,83,0.00,,,0.00,WUHU216HW,2013-06-20 13:20:00,
2013-06-20 06:25:00,54.7,49.6,30.29,SW,225,0.4,0.9,83,0.00,,,0.00,WUHU216HW,2013-06-20 13:25:00,
2013-06-20 06:30:00,54.9,49.8,30.29,SSW,203,0.9,1.6,83,0.00,,,0.00,WUHU216HW,2013-06-20 13:30:00,
2013-06-20 06:35:00,54.7,49.6,30.29,WSW,248,0.0,1.8,83,0.00,,,0.00,WUHU216HW,2013-06-20 13:35:00,
2013-06-20 06:40:00,54.7,49.6,30.29,NE,45,0.4,1.8,83,0.00,,,0.00,WUHU216HW,2013-06-20 13:40:00,
2013-06-20 06:45:00,54.7,49.6,30.29,SSW,203,0.2,0.9,83,0.00,,,0.00,WUHU216HW,2013-06-20 13:45:00,
2013-06-20 06:50:00,54.7,49.6,30.29,West,270,0.0,0.9,83,0.00,,,0.00,WUHU216HW,2013-06-20 13:50:00,
2013-06-20 06:55:00,54.7,49.6,30.29,West,270,0.0,0.9,83,0.00,,,0.00,WUHU216HW,2013-06-20 13:55:00,
2013-06-20 07:00:00,54.7,49.6,30.29,NW,315,0.0,0.4,83,0.00,,,0.00,WUHU216HW,2013-06-20 14:00:00,
2013-06-20 07:05:00,54.7,49.6,30.29,NW,315,0.0,0.4,83,0.00,,,0.00,WUHU216HW,2013-06-20 14:05:00,
2013-06-20 07:10:00,54.9,50.1,30.29,SW,225,1.3,1.3,84,0.00,,,0.00,WUHU216HW,2013-06-20 14:10:00,
2013-06-20 07:15:00,54.9,50.1,30.29,SW,225,0.0,1.3,84,0.00,,,0.00,WUHU216HW,2013-06-20 14:15:00,
2013-06-20 07:20:00,54.9,50.1,30.29,WSW,248,0.0,1.6,84,0.00,,,0.00,WUHU216HW,2013-06-20 14:20:00,
2013-06-20 07:25:00,55.1,50.3,30.29,SW,225,0.4,1.6,84,0.00,,,0.00,WUHU216HW,2013-06-20 14:25:00,
2013-06-20 07:30:00,55.1,50.3,30.29,SSW,203,0.7,1.3,84,0.00,,,0.00,WUHU216HW,2013-06-20 14:30:00,
2013-06-20 07:35:00,55.1,50.3,30.29,SW,225,0.4,1.8,84,0.00,,,0.00,WUHU216HW,2013-06-20 14:35:00,
2013-06-20 07:40:00,55.1,50.3,30.29,WSW,248,1.1,1.8,84,0.00,,,0.00,WUHU216HW,2013-06-20 14:40:00,
2013-06-20 07:45:00,55.1,50.3,30.28,SW,225,1.1,1.1,84,0.00,,,0.00,WUHU216HW,2013-06-20 14:45:00,
2013-06-20 07:50:00,55.1,50.3,30.28,SSW,203,0.7,1.1,84,0.00,,,0.00,WUHU216HW,2013-06-20 14:50:00,
2013-06-20 07:54:00,55.3,50.5,30.28,WSW,248,1.8,1.8,84,0.00,,,0.00,WUHU216HW,2013-06-20 14:54:00,
2013-06-20 07:59:00,55.3,50.5,30.28,SSW,203,0.2,1.8,84,0.00,,,0.00,WUHU216HW,2013-06-20 14:59:00,
2013-06-20 08:04:00,55.4,50.9,30.28,South,180,1.6,1.6,85,0.00,,,0.00,WUHU216HW,2013-06-20 15:04:00,
2013-06-20 08:09:00,55.4,50.9,30.28,SW,225,1.8,3.4,85,0.00,,,0.00,WUHU216HW,2013-06-20 15:09:00,
2013-06-20 08:14:00,55.4,51.3,30.28,WSW,248,1.6,3.6,86,0.00,,,0.00,WUHU216HW,2013-06-20 15:14:00,
2013-06-20 08:19:00,55.4,50.9,30.28,SW,225,1.1,6.3,85,0.00,,,0.00,WUHU216HW,2013-06-20 15:19:00,
2013-06-20 08:24:00,55.4,50.9,30.28,SSE,158,1.1,6.3,85,0.00,,,0.00,WUHU216HW,2013-06-20 15:24:00,
2013-06-20 08:29:00,55.4,50.9,30.29,SW,225,4.7,4.7,85,0.00,,,0.00,WUHU216HW,2013-06-20 15:29:00,
2013-06-20 08:34:00,55.6,51.1,30.29,SSW,203,1.6,4.7,85,0.00,,,0.00,WUHU216HW,2013-06-20 15:34:00,
2013-06-20 08:39:00,55.4,50.9,30.28,WSW,248,5.6,6.3,85,0.00,,,0.00,WUHU216HW,2013-06-20 15:39:00,
2013-06-20 08:44:00,55.4,50.6,30.28,NW,315,0.9,6.3,84,0.00,,,0.00,WUHU216HW,2013-06-20 15:44:00,
2013-06-20 08:49:00,55.4,50.6,30.28,WNW,293,0.0,3.4,84,0.00,,,0.00,WUHU216HW,2013-06-20 15:49:00,
2013-06-20 08:54:00,55.8,51.3,30.28,SSE,158,1.8,1.8,85,0.00,,,0.00,WUHU216HW,2013-06-20 15:54:00,
2013-06-20 08:59:00,56.2,51.3,30.28,SSE,158,0.0,1.8,84,0.00,,,0.00,WUHU216HW,2013-06-20 15:59:00,
2013-06-20 09:04:00,56.2,51.3,30.28,NW,315,0.7,1.6,84,0.00,,,0.00,WUHU216HW,2013-06-20 16:04:00,
2013-06-20 09:09:00,56.2,51.3,30.29,WSW,248,0.0,1.3,84,0.00,,,0.00,WUHU216HW,2013-06-20 16:09:00,
2013-06-20 09:14:00,56.2,51.3,30.29,SW,225,1.1,1.1,84,0.00,,,0.00,WUHU216HW,2013-06-20 16:14:00,
2013-06-20 09:19:00,56.2,51.3,30.28,West,270,0.4,1.8,84,0.00,,,0.00,WUHU216HW,2013-06-20 16:19:00,
2013-06-20 09:24:00,56.2,51.3,30.28,WSW,248,0.4,1.8,84,0.00,,,0.00,WUHU216HW,2013-06-20 16:24:00,
2013-06-20 09:29:00,56.0,51.1,30.28,SW,225,0.0,2.0,84,0.00,,,0.00,WUHU216HW,2013-06-20 16:29:00,
2013-06-20 09:34:00,56.2,51.3,30.28,WSW,248,0.0,3.4,84,0.00,,,0.00,WUHU216HW,2013-06-20 16:34:00,
2013-06-20 09:39:00,56.2,51.7,30.29,SSW,203,0.4,3.4,85,0.00,,,0.00,WUHU216HW,2013-06-20 16:39:00,
2013-06-20 09:44:00,56.3,51.8,30.28,SSE,158,0.4,1.6,85,0.00,,,0.00,WUHU216HW,2013-06-20 16:44:00,
2013-06-20 09:49:00,56.3,51.8,30.28,South,180,0.9,2.5,85,0.00,,,0.00,WUHU216HW,2013-06-20 16:49:00,
2013-06-20 09:54:00,56.3,52.2,30.28,SW,225,2.9,2.9,86,0.00,,,0.00,WUHU216HW,2013-06-20 16:54:00,
2013-06-20 09:59:00,56.3,51.8,30.28,WSW,248,1.1,2.9,85,0.00,,,0.00,WUHU216HW,2013-06-20 16:59:00,
2013-06-20 10:04:00,56.3,51.8,30.28,WSW,248,0.4,2.5,85,0.00,,,0.00,WUHU216HW,2013-06-20 17:04:00,
2013-06-20 10:09:00,56.5,52.0,30.28,WSW,248,0.0,1.6,85,0.00,,,0.00,WUHU216HW,2013-06-20 17:09:00,
2013-06-20 10:14:00,56.9,52.8,30.28,West,270,1.3,1.6,86,0.00,,,0.00,WUHU216HW,2013-06-20 17:14:00,
2013-06-20 10:19:00,56.9,52.4,30.28,South,180,1.1,1.3,85,0.00,,,0.00,WUHU216HW,2013-06-20 17:19:00,
2013-06-20 10:24:00,57.1,52.2,30.28,SW,225,0.0,1.3,84,0.00,,,0.00,WUHU216HW,2013-06-20 17:24:00,
2013-06-20 10:29:00,57.2,52.4,30.28,ENE,68,0.2,1.3,84,0.00,,,0.00,WUHU216HW,2013-06-20 17:29:00,
2013-06-20 10:34:00,57.2,52.4,30.28,WSW,248,0.2,2.0,84,0.00,,,0.00,WUHU216HW,2013-06-20 17:34:00,
2013-06-20 10:39:00,57.4,52.9,30.28,WSW,248,1.8,2.0,85,0.00,,,0.00,WUHU216HW,2013-06-20 17:39:00,
2013-06-20 10:44:00,57.4,52.6,30.28,SW,225,0.4,2.5,84,0.00,,,0.00,WUHU216HW,2013-06-20 17:44:00,
2013-06-20 10:49:00,57.6,52.7,30.27,SW,225,1.1,2.9,84,0.00,,,0.00,WUHU216HW,2013-06-20 17:49:00,
2013-06-20 10:54:00,57.6,52.5,30.27,SSW,203,2.5,2.9,83,0.00,,,0.00,WUHU216HW,2013-06-20 17:54:00,
2013-06-20 10:59:00,57.4,52.3,30.27,SSE,158,0.4,2.9,83,0.00,,,0.00,WUHU216HW,2013-06-20 17:59:00,
2013-06-20 11:04:00,57.6,52.5,30.27,SSW,203,3.4,3.4,83,0.00,,,0.00,WUHU216HW,2013-06-20 18:04:00,
2013-06-20 11:09:00,57.6,52.5,30.28,SSW,203,1.8,3.4,83,0.00,,,0.00,WUHU216HW,2013-06-20 18:09:00,
2013-06-20 11:14:00,57.6,52.1,30.28,SE,135,4.0,4.0,82,0.00,,,0.00,WUHU216HW,2013-06-20 18:14:00,
2013-06-20 11:19:00,57.6,52.1,30.28,SSW,203,4.0,4.7,82,0.00,,,0.00,WUHU216HW,2013-06-20 18:19:00,
2013-06-20 11:24:00,57.8,52.3,30.28,SSW,203,3.1,4.7,82,0.00,,,0.00,WUHU216HW,2013-06-20 18:24:00,
2013-06-20 11:29:00,58.0,52.5,30.27,South,180,3.4,3.6,82,0.00,,,0.00,WUHU216HW,2013-06-20 18:29:00,
2013-06-20 11:34:00,58.1,52.4,30.27,SE,135,2.7,5.8,81,0.00,,,0.00,WUHU216HW,2013-06-20 18:34:00,
2013-06-20 11:39:00,58.0,51.8,30.28,ESE,113,0.9,5.8,80,0.00,,,0.00,WUHU216HW,2013-06-20 18:39:00,
2013-06-20 11:44:00,58.0,51.8,30.28,SSW,203,1.8,4.5,80,0.00,,,0.00,WUHU216HW,2013-06-20 18:44:00,
2013-06-20 11:49:00,58.0,51.8,30.28,SSW,203,2.0,4.3,80,0.00,,,0.00,WUHU216HW,2013-06-20 18:49:00,
2013-06-20 11:54:00,57.8,52.0,30.28,WSW,248,1.8,4.3,81,0.00,,,0.00,WUHU216HW,2013-06-20 18:54:00,
2013-06-20 11:59:00,57.8,52.0,30.28,WSW,248,2.0,2.0,81,0.00,,,0.00,WUHU216HW,2013-06-20 18:59:00,
2013-06-20 12:04:00,57.8,51.7,30.28,SSE,158,2.9,2.9,80,0.00,,,0.00,WUHU216HW,2013-06-20 19:04:00,
2013-06-20 12:09:00,57.8,51.7,30.28,SSE,158,2.9,2.9,80,0.00,,,0.00,WUHU216HW,2013-06-20 19:09:00,
2013-06-20 12:14:00,58.0,52.2,30.28,WSW,248,1.6,1.6,81,0.00,,,0.00,WUHU216HW,2013-06-20 19:14:00,
2013-06-20 12:19:00,58.0,52.2,30.28,WSW,248,1.6,1.6,81,0.00,,,0.00,WUHU216HW,2013-06-20 19:19:00,
2013-06-20 12:24:00,58.1,52.7,30.28,SW,225,2.5,2.5,82,0.00,,,0.00,WUHU216HW,2013-06-20 19:24:00,
2013-06-20 12:29:00,58.1,52.7,30.28,SW,225,2.5,2.5,82,0.00,,,0.00,WUHU216HW,2013-06-20 19:29:00,
2013-06-20 13:59:00,59.2,53.5,30.29,SSW,203,2.0,2.0,81,0.00,,,0.00,WUHU216HW,2013-06-20 20:59:00,
2013-06-20 14:04:00,59.4,53.7,30.29,SW,225,4.7,4.7,81,0.00,,,0.00,WUHU216HW,2013-06-20 21:04:00,
2013-06-20 14:09:00,59.4,53.3,30.29,SW,225,2.2,4.7,80,0.00,,,0.00,WUHU216HW,2013-06-20 21:09:00,
2013-06-20 14:14:00,59.2,53.1,30.29,WSW,248,2.7,4.7,80,0.00,,,0.00,WUHU216HW,2013-06-20 21:14:00,
2013-06-20 14:19:00,59.2,53.5,30.29,SSE,158,1.8,4.3,81,0.00,,,0.00,WUHU216HW,2013-06-20 21:19:00,
2013-06-20 14:24:00,59.2,53.1,30.29,SSE,158,1.8,3.6,80,0.00,,,0.00,WUHU216HW,2013-06-20 21:24:00,
2013-06-20 14:29:00,59.2,53.5,30.29,SW,225,0.4,4.0,81,0.00,,,0.00,WUHU216HW,2013-06-20 21:29:00,
2013-06-20 14:34:00,59.2,53.5,30.30,SSW,203,1.1,4.0,81,0.00,,,0.00,WUHU216HW,2013-06-20 21:34:00,
2013-06-20 14:39:00,59.2,53.5,30.30,South,180,2.2,3.8,81,0.00,,,0.00,WUHU216HW,2013-06-20 21:39:00,
2013-06-20 14:44:00,59.2,53.5,30.30,WSW,248,2.2,3.8,81,0.00,,,0.00,WUHU216HW,2013-06-20 21:44:00,
2013-06-20 14:49:00,59.2,53.5,30.30,SSW,203,2.2,3.1,81,0.00,,,0.00,WUHU216HW,2013-06-20 21:49:00,
2013-06-20 14:54:00,59.0,53.3,30.30,SW,225,1.3,5.4,81,0.00,,,0.00,WUHU216HW,2013-06-20 21:54:00,
2013-06-20 14:59:00,58.9,53.1,30.30,WSW,248,6.7,6.7,81,0.00,,,0.00,WUHU216HW,2013-06-20 21:59:00,
2013-06-20 15:04:00,58.9,53.1,30.30,South,180,2.0,6.7,81,0.00,,,0.00,WUHU216HW,2013-06-20 22:04:00,
2013-06-20 15:09:00,58.7,53.2,30.30,SW,225,3.4,4.7,82,0.00,,,0.00,WUHU216HW,2013-06-20 22:09:00,
2013-06-20 15:14:00,58.7,53.2,30.30,SW,225,0.4,3.4,82,0.00,,,0.00,WUHU216HW,2013-06-20 22:14:00,
2013-06-20 15:19:00,58.9,53.7,30.30,WSW,248,1.1,3.4,83,0.00,,,0.00,WUHU216HW,2013-06-20 22:19:00,
2013-06-20 15:24:00,59.0,53.9,30.30,SW,225,2.9,2.9,83,0.00,,,0.00,WUHU216HW,2013-06-20 22:24:00,
2013-06-20 15:29:00,59.0,53.9,30.31,SW,225,0.4,2.9,83,0.00,,,0.00,WUHU216HW,2013-06-20 22:29:00,
2013-06-20 15:34:00,59.0,53.9,30.31,WSW,248,0.4,2.0,83,0.00,,,0.00,WUHU216HW,2013-06-20 22:34:00,
2013-06-20 15:39:00,59.0,53.9,30.31,SSW,203,0.7,2.7,83,0.00,,,0.00,WUHU216HW,2013-06-20 22:39:00,
2013-06-20 15:44:00,59.0,53.9,30.31,WSW,248,1.8,2.7,83,0.00,,,0.00,WUHU216HW,2013-06-20 22:44:00,
2013-06-20 15:49:00,58.7,53.6,30.31,SSW,203,0.9,4.0,83,0.00,,,0.00,WUHU216HW,2013-06-20 22:49:00,
2013-06-20 15:54:00,58.7,53.6,30.32,SSE,158,0.2,4.0,83,0.00,,,0.00,WUHU216HW,2013-06-20 22:54:00,
2013-06-20 15:59:00,58.7,53.6,30.32,North,0,0.7,1.6,83,0.00,,,0.00,WUHU216HW,2013-06-20 22:59:00,
2013-06-20 16:04:00,58.5,53.4,30.32,North,0,1.1,1.3,83,0.00,,,0.00,WUHU216HW,2013-06-20 23:04:00,
2013-06-20 16:09:00,58.0,53.5,30.32,NNE,23,1.1,2.5,85,0.00,,,0.00,WUHU216HW,2013-06-20 23:09:00,
2013-06-20 16:14:00,57.6,53.1,30.32,SW,225,0.7,2.5,85,0.00,,,0.00,WUHU216HW,2013-06-20 23:14:00,
2013-06-20 16:19:00,57.6,53.1,30.33,North,0,1.1,1.6,85,0.00,,,0.00,WUHU216HW,2013-06-20 23:19:00,
2013-06-20 16:24:00,57.2,52.7,30.34,North,0,0.0,1.1,85,0.00,,,0.00,WUHU216HW,2013-06-20 23:24:00,
2013-06-20 16:29:00,57.1,52.9,30.34,North,0,1.3,1.3,86,0.00,,,0.00,WUHU216HW,2013-06-20 23:29:00,
2013-06-20 16:34:00,56.7,52.6,30.34,NNW,338,1.3,1.8,86,0.00,,,0.00,WUHU216HW,2013-06-20 23:34:00,
2013-06-20 16:39:00,56.3,52.2,30.34,North,0,1.1,1.8,86,0.00,,,0.00,WUHU216HW,2013-06-20 23:39:00,
2013-06-20 16:44:00,56.2,52.0,30.34,West,270,0.0,1.8,86,0.00,,,0.00,WUHU216HW,2013-06-20 23:44:00,
2013-06-20 16:49:00,56.0,51.9,30.35,WSW,248,0.0,1.1,86,0.00,,,0.00,WUHU216HW,2013-06-20 23:49:00,
2013-06-20 16:54:00,56.0,51.9,30.35,SW,225,0.4,1.1,86,0.00,,,0.00,WUHU216HW,2013-06-20 23:54:00,
2013-06-20 16:59:00,55.8,51.9,30.35,NNW,338,0.9,2.0,87,0.00,,,0.00,WUHU216HW,2013-06-20 23:59:00,
2013-06-20 17:04:00,55.8,51.9,30.35,West,270,0.4,2.0,87,0.00,,,0.00,WUHU216HW,2013-06-21 00:04:00,
2013-06-20 17:09:00,55.8,51.9,30.35,West,270,0.4,0.4,87,0.00,,,0.00,WUHU216HW,2013-06-21 00:09:00,
2013-06-20 17:14:00,55.6,51.8,30.35,SW,225,0.9,0.9,87,0.00,,,0.00,WUHU216HW,2013-06-21 00:14:00,
2013-06-20 17:19:00,55.6,51.8,30.35,South,180,0.0,0.9,87,0.00,,,0.00,WUHU216HW,2013-06-21 00:19:00,
2013-06-20 17:24:00,55.6,51.8,30.35,SSE,158,0.0,0.7,87,0.00,,,0.00,WUHU216HW,2013-06-21 00:24:00,
2013-06-20 17:29:00,55.4,51.9,30.35,North,0,0.2,0.2,88,0.00,,,0.00,WUHU216HW,2013-06-21 00:29:00,
2013-06-20 17:34:00,55.3,51.4,30.36,South,180,0.7,1.6,87,0.00,,,0.00,WUHU216HW,2013-06-21 00:34:00,
2013-06-20 17:39:00,55.4,51.9,30.36,SSW,203,0.0,2.7,88,0.00,,,0.00,WUHU216HW,2013-06-21 00:39:00,
2013-06-20 17:44:00,55.4,51.9,30.36,SSW,203,0.0,2.7,88,0.00,,,0.00,WUHU216HW,2013-06-21 00:44:00,
2013-06-20 17:49:00,55.4,51.9,30.36,NNW,338,0.0,0.9,88,0.00,,,0.00,WUHU216HW,2013-06-21 00:49:00,
2013-06-20 17:54:00,55.4,51.9,30.36,NNW,338,0.0,0.2,88,0.00,,,0.00,WUHU216HW,2013-06-21 00:54:00,
2013-06-20 17:59:00,55.4,51.9,30.36,NNW,338,0.0,0.0,88,0.00,,,0.00,WUHU216HW,2013-06-21 00:59:00,
2013-06-20 18:04:00,55.4,51.9,30.36,NNW,338,0.0,0.7,88,0.00,,,0.00,WUHU216HW,2013-06-21 01:04:00,
2013-06-20 18:09:00,55.3,51.8,30.36,NNW,338,0.0,0.7,88,0.00,,,0.00,WUHU216HW,2013-06-21 01:09:00,
2013-06-20 18:14:00,55.3,51.8,30.37,NNW,338,0.0,0.0,88,0.00,,,0.00,WUHU216HW,2013-06-21 01:14:00,
2013-06-20 18:19:00,55.1,51.6,30.36,NNW,338,0.0,0.2,88,0.00,,,0.00,WUHU216HW,2013-06-21 01:19:00,
2013-06-20 18:24:00,55.1,51.6,30.37,NNW,338,0.0,0.2,88,0.00,,,0.00,WUHU216HW,2013-06-21 01:24:00,
2013-06-20 18:29:00,55.1,51.6,30.37,WSW,248,1.6,1.6,88,0.00,,,0.00,WUHU216HW,2013-06-21 01:29:00,
2013-06-20 18:34:00,55.1,51.6,30.37,SSW,203,0.0,1.6,88,0.00,,,0.00,WUHU216HW,2013-06-21 01:34:00,
2013-06-20 18:39:00,55.1,51.6,30.37,NW,315,0.0,1.1,88,0.00,,,0.00,WUHU216HW,2013-06-21 01:39:00,
2013-06-20 18:44:00,55.1,51.8,30.37,NW,315,0.0,0.9,89,0.00,,,0.00,WUHU216HW,2013-06-21 01:44:00,
2013-06-20 18:49:00,54.9,51.7,30.37,North,0,0.4,1.6,89,0.00,,,0.00,WUHU216HW,2013-06-21 01:49:00,
2013-06-20 18:54:00,54.9,51.7,30.37,North,0,0.0,1.6,89,0.00,,,0.00,WUHU216HW,2013-06-21 01:54:00,
2013-06-20 18:59:00,54.9,52.0,30.37,NNW,338,0.4,0.4,90,0.00,,,0.00,WUHU216HW,2013-06-21 01:59:00,
2013-06-20 19:04:00,54.9,51.7,30.37,NNW,338,0.0,0.4,89,0.00,,,0.00,WUHU216HW,2013-06-21 02:04:00,
2013-06-20 19:09:00,55.1,51.8,30.37,NW,315,0.0,0.0,89,0.00,,,0.00,WUHU216HW,2013-06-21 02:09:00,
2013-06-20 19:14:00,54.9,51.7,30.37,NW,315,1.6,1.6,89,0.00,,,0.00,WUHU216HW,2013-06-21 02:14:00,
2013-06-20 19:19:00,54.7,51.5,30.38,NW,315,0.0,1.6,89,0.00,,,0.00,WUHU216HW,2013-06-21 02:19:00,
2013-06-20 19:24:00,54.7,51.5,30.38,NW,315,0.0,0.0,89,0.00,,,0.00,WUHU216HW,2013-06-21 02:24:00,
2013-06-20 19:29:00,54.7,51.5,30.38,NW,315,0.0,0.0,89,0.00,,,0.00,WUHU216HW,2013-06-21 02:29:00,
2013-06-20 19:34:00,54.5,51.3,30.38,WNW,293,0.0,0.7,89,0.00,,,0.00,WUHU216HW,2013-06-21 02:34:00,
2013-06-20 19:39:00,54.5,51.3,30.38,WNW,293,0.0,0.7,89,0.00,,,0.00,WUHU216HW,2013-06-21 02:39:00,
2013-06-20 19:44:00,54.5,51.3,30.38,NW,315,0.0,2.7,89,0.00,,,0.00,WUHU216HW,2013-06-21 02:44:00,
2013-06-20 19:49:00,54.7,51.5,30.38,WSW,248,0.0,2.7,89,0.00,,,0.00,WUHU216HW,2013-06-21 02:49:00,
2013-06-20 19:54:00,54.7,51.5,30.38,West,270,0.0,0.0,89,0.00,,,0.00,WUHU216HW,2013-06-21 02:54:00,
2013-06-20 19:59:00,54.7,51.5,30.39,NNW,338,0.0,0.9,89,0.00,,,0.00,WUHU216HW,2013-06-21 02:59:00,
2013-06-20 20:04:00,54.5,51.7,30.39,NW,315,1.1,1.3,90,0.00,,,0.00,WUHU216HW,2013-06-21 03:04:00,
2013-06-20 20:09:00,54.5,51.7,30.39,NW,315,0.0,2.0,90,0.00,,,0.00,WUHU216HW,2013-06-21 03:09:00,
2013-06-20 20:14:00,54.7,51.8,30.39,NW,315,0.0,2.0,90,0.00,,,0.00,WUHU216HW,2013-06-21 03:14:00,
2013-06-20 20:19:00,54.7,51.8,30.40,NNW,338,1.1,2.0,90,0.00,,,0.00,WUHU216HW,2013-06-21 03:19:00,
2013-06-20 20:24:00,54.7,51.8,30.40,NNW,338,0.0,1.8,90,0.00,,,0.00,WUHU216HW,2013-06-21 03:24:00,
2013-06-20 20:29:00,54.5,51.3,30.40,NNW,338,0.4,2.0,89,0.00,,,0.00,WUHU216HW,2013-06-21 03:29:00,
2013-06-20 20:34:00,54.5,51.3,30.40,NNW,338,0.0,2.0,89,0.00,,,0.00,WUHU216HW,2013-06-21 03:34:00,
2013-06-20 20:39:00,54.4,51.2,30.40,NNW,338,0.0,1.6,89,0.00,,,0.00,WUHU216HW,2013-06-21 03:39:00,
2013-06-20 20:44:00,54.4,51.2,30.40,NNW,338,0.2,0.2,89,0.00,,,0.00,WUHU216HW,2013-06-21 03:44:00,
2013-06-20 20:49:00,54.4,51.2,30.40,NNW,338,0.2,0.2,89,0.00,,,0.00,WUHU216HW,2013-06-21 03:49:00,
2013-06-20 20:54:00,54.4,51.2,30.40,NW,315,0.2,0.2,89,0.00,,,0.00,WUHU216HW,2013-06-21 03:54:00,
2013-06-20 20:59:00,54.4,51.2,30.40,NW,315,0.0,0.2,89,0.00,,,0.00,WUHU216HW,2013-06-21 03:59:00,
2013-06-20 21:01:00,54.4,51.2,30.40,NW,315,0.0,0.2,89,0.00,,,0.00,WUHU216HW,2013-06-21 04:01:00,
2013-06-20 21:06:00,54.4,51.5,30.40,WSW,248,0.0,0.2,90,0.00,,,0.00,WUHU216HW,2013-06-21 04:06:00,
2013-06-20 21:11:00,54.4,51.5,30.41,WSW,248,0.2,0.2,90,0.00,,,0.00,WUHU216HW,2013-06-21 04:11:00,
2013-06-20 21:16:00,54.4,51.5,30.41,WSW,248,0.0,0.2,90,0.00,,,0.00,WUHU216HW,2013-06-21 04:16:00,
2013-06-20 21:21:00,54.4,51.5,30.41,WSW,248,0.0,0.0,90,0.00,,,0.00,WUHU216HW,2013-06-21 04:21:00,
2013-06-20 21:26:00,54.4,51.5,30.41,WSW,248,0.0,0.4,90,0.00,,,0.00,WUHU216HW,2013-06-21 04:26:00,
2013-06-20 21:31:00,54.5,51.7,30.41,WSW,248,0.0,0.4,90,0.00,,,0.00,WUHU216HW,2013-06-21 04:31:00,
2013-06-20 21:36:00,54.4,51.5,30.42,WSW,248,0.0,0.0,90,0.00,,,0.00,WUHU216HW,2013-06-21 04:36:00,
2013-06-20 21:41:00,54.4,51.5,30.42,WSW,248,0.0,0.0,90,0.00,,,0.00,WUHU216HW,2013-06-21 04:41:00,
2013-06-20 21:46:00,54.4,51.2,30.42,WSW,248,0.0,0.2,89,0.00,,,0.00,WUHU216HW,2013-06-21 04:46:00,
2013-06-20 21:51:00,54.4,51.2,30.42,WSW,248,0.0,0.2,89,0.00,,,0.00,WUHU216HW,2013-06-21 04:51:00,
2013-06-20 21:56:00,54.4,51.2,30.42,WSW,248,0.0,0.2,89,0.00,,,0.00,WUHU216HW,2013-06-21 04:56:00,
2013-06-20 22:01:00,54.4,51.2,30.42,WSW,248,0.0,0.2,89,0.00,,,0.00,WUHU216HW,2013-06-21 05:01:00,
2013-06-20 22:06:00,54.4,51.2,30.42,WSW,248,0.0,0.2,89,0.00,,,0.00,WUHU216HW,2013-06-21 05:06:00,
2013-06-20 22:11:00,54.4,51.2,30.43,WSW,248,0.0,0.4,89,0.00,,,0.00,WUHU216HW,2013-06-21 05:11:00,
2013-06-20 22:16:00,54.4,51.2,30.42,WSW,248,0.4,0.7,89,0.00,,,0.00,WUHU216HW,2013-06-21 05:16:00,
2013-06-20 22:21:00,54.4,51.2,30.43,WSW,248,0.0,0.7,89,0.00,,,0.00,WUHU216HW,2013-06-21 05:21:00,
2013-06-20 22:26:00,54.4,51.2,30.43,WSW,248,0.2,0.4,89,0.00,,,0.00,WUHU216HW,2013-06-21 05:26:00,
2013-06-20 22:31:00,54.2,51.0,30.43,SW,225,0.4,0.4,89,0.00,,,0.00,WUHU216HW,2013-06-21 05:31:00,
2013-06-20 22:36:00,54.2,51.0,30.43,SW,225,0.9,0.9,89,0.00,,,0.00,WUHU216HW,2013-06-21 05:36:00,
2013-06-20 22:41:00,54.0,50.9,30.43,SW,225,0.0,0.9,89,0.00,,,0.00,WUHU216HW,2013-06-21 05:41:00,
2013-06-20 22:46:00,54.2,51.3,30.42,SW,225,0.0,0.0,90,0.00,,,0.00,WUHU216HW,2013-06-21 05:46:00,
2013-06-20 22:51:00,54.2,51.3,30.42,SW,225,0.4,0.4,90,0.00,,,0.00,WUHU216HW,2013-06-21 05:51:00,
2013-06-20 22:56:00,54.2,51.3,30.42,SSW,203,0.0,1.1,90,0.00,,,0.00,WUHU216HW,2013-06-21 05:56:00,
2013-06-20 23:01:00,54.2,51.0,30.42,SSW,203,0.0,1.1,89,0.00,,,0.00,WUHU216HW,2013-06-21 06:01:00,
2013-06-20 23:06:00,54.0,50.9,30.42,SSW,203,0.0,0.0,89,0.00,,,0.00,WUHU216HW,2013-06-21 06:06:00,
2013-06-20 23:11:00,54.0,50.9,30.42,SSW,203,0.0,0.4,89,0.00,,,0.00,WUHU216HW,2013-06-21 06:11:00,
2013-06-20 23:16:00,54.0,50.9,30.42,SSW,203,0.0,0.4,89,0.00,,,0.00,WUHU216HW,2013-06-21 06:16:00,
2013-06-20 23:21:00,54.0,50.9,30.42,SSW,203,0.0,0.0,89,0.00,,,0.00,WUHU216HW,2013-06-21 06:21:00,
2013-06-20 23:26:00,53.8,50.9,30.42,SSW,203,0.0,0.0,90,0.00,,,0.00,WUHU216HW,2013-06-21 06:26:00,
2013-06-20 23:31:00,53.6,50.8,30.42,SSW,203,0.0,0.0,90,0.00,,,0.00,WUHU216HW,2013-06-21 06:31:00,
2013-06-20 23:36:00,53.6,50.8,30.43,SSW,203,0.2,0.2,90,0.00,,,0.00,WUHU216HW,2013-06-21 06:36:00,
2013-06-20 23:41:00,53.6,50.8,30.43,SSW,203,0.0,0.2,90,0.00,,,0.00,WUHU216HW,2013-06-21 06:41:00,
2013-06-20 23:46:00,53.6,50.8,30.43,SSW,203,0.0,0.0,90,0.00,,,0.00,WUHU216HW,2013-06-21 06:46:00,
2013-06-20 23:51:00,53.8,50.9,30.43,SSW,203,0.0,0.0,90,0.00,,,0.00,WUHU216HW,2013-06-21 06:51:00,
2013-06-20 23:56:00,53.8,50.9,30.43,SSW,203,0.0,0.0,90,0.00,,,0.00,WUHU216HW,2013-06-21 06:56:00,